Location: ??????
(41.3164°N, 22.6615°E)
Time: 03:07:30
(UTC+00:00)

Oscar 19 - Pass Details

Date: 05 July 2022
Orbit: 773 x 790 km, 98.8° (Epoch: 11 August)

Event Time Altitude Azimuth Distance (km) Brightness Sun altitude
Rises 01:36:00 0° 19° (NNE) 3,258 15.2 -13.3°
Reaches altitude 10° 01:38:25 10° 26° (NNE) 2,326 14.4 -12.9°
Maximum altitude 01:43:21 47° 100° (E) 1,016 11.5 -12.3°
Drops below altitude 10° 01:48:15 10° 174° (S) 2,313 12.7 -11.7°
Enters shadow 01:49:46 - 178° (S) 2,894 13.2 -11.5°
